{"data":{"norad_id":49106,"epoch":"2026-09-19T22:56:44.223360Z","epoch_age_seconds":68994,"freshness":"FRESH","line1":"1 49106U 21075AH  26262.95606740 -.00003367  00000+0 -93962-2 0  9991","line2":"2 49106  87.8976 331.8385 0002333 117.1000 243.0366 13.12460611246987","mean_motion":13.12460611,"eccentricity":0.0002333,"inclination_deg":87.8976,"raan_deg":331.8385,"arg_perigee_deg":117.1,"mean_anomaly_deg":243.0366,"bstar":-0.0093962,"rev_number":24698,"period_min":109.71757841196,"perigee_km":1211.8842124572,"apogee_km":1215.4265427806,"semimajor_km":7591.7923776189,"source":"CELESTRAK","updated_at":"2026-09-20T09:00:44.659377Z"}}